owner,sensor,date,latitude,longitude,sea_surface_height_above_sea_level,qcFlag 
TCOON,ioos:station:TCOON:057:1,2019-05-01T00:24:00Z,28.4460,-96.3961,3.955,11111222 
TCOON,ioos:station:TCOON:057:1,2019-05-01T01:24:00Z,28.4460,-96.3961,3.958,11111222 
TCOON,ioos:station:TCOON:057:1,2019-05-01T02:24:00Z,28.4460,-96.3961,3.956,11111222 
TCOON,ioos:station:TCOON:057:1,2019-05-01T03:24:00Z,28.4460,-96.3961,3.92,11111222 
TCOON,ioos:station:TCOON:057:1,2019-05-01T04:24:00Z,28.4460,-96.3961,3.932,11111222 
TCOON,ioos:station:TCOON:057:1,2019-05-01T05:48:00Z,28.4460,-96.3961,3.94,11111222 
TCOON,ioos:station:TCOON:057:1,2019-05-01T06:24:00Z,28.4460,-96.3961,3.953,11111222 
TCOON,ioos:station:TCOON:057:1,2019-05-01T07:24:00Z,28.4460,-96.3961,3.979,11111222 
TCOON,ioos:station:TCOON:057:1,2019-05-01T08:24:00Z,28.4460,-96.3961,3.964,11111222 
TCOON,ioos:station:TCOON:057:1,2019-05-01T09:24:00Z,28.4460,-96.3961,3.966,11111222 
TCOON,ioos:station:TCOON:057:1,2019-05-01T10:24:00Z,28.4460,-96.3961,3.976,11111222 
TCOON,ioos:station:TCOON:057:1,2019-05-01T11:24:00Z,28.4460,-96.3961,3.953,11111222 
TCOON,ioos:station:TCOON:057:1,2019-05-01T12:24:00Z,28.4460,-96.3961,3.936,11111222 
TCOON,ioos:station:TCOON:057:1,2019-05-01T13:24:00Z,28.4460,-96.3961,3.927,11111222 
TCOON,ioos:station:TCOON:057:1,2019-05-01T14:24:00Z,28.4460,-96.3961,3.915,11111222 
TCOON,ioos:station:TCOON:057:1,2019-05-01T15:24:00Z,28.4460,-96.3961,3.921,11111222 
TCOON,ioos:station:TCOON:057:1,2019-05-01T16:24:00Z,28.4460,-96.3961,3.899,11111222 
TCOON,ioos:station:TCOON:057:1,2019-05-01T17:24:00Z,28.4460,-96.3961,3.904,11111222 
TCOON,ioos:station:TCOON:057:1,2019-05-01T18:24:00Z,28.4460,-96.3961,3.925,11111222 
TCOON,ioos:station:TCOON:057:1,2019-05-01T19:24:00Z,28.4460,-96.3961,3.94,11111222 
TCOON,ioos:station:TCOON:057:1,2019-05-01T20:24:00Z,28.4460,-96.3961,3.95,11111222 
TCOON,ioos:station:TCOON:057:1,2019-05-01T21:24:00Z,28.4460,-96.3961,3.955,11111222 
TCOON,ioos:station:TCOON:057:1,2019-05-01T22:24:00Z,28.4460,-96.3961,3.961,11111222 
TCOON,ioos:station:TCOON:057:1,2019-05-01T23:24:00Z,28.4460,-96.3961,3.916,11111222 
TCOON,ioos:station:TCOON:057:1,2019-05-02T00:24:00Z,28.4460,-96.3961,3.928,11111222 
TCOON,ioos:station:TCOON:057:1,2019-05-02T01:24:00Z,28.4460,-96.3961,3.897,11111222 
TCOON,ioos:station:TCOON:057:1,2019-05-02T02:24:00Z,28.4460,-96.3961,3.894,11111222 
TCOON,ioos:station:TCOON:057:1,2019-05-02T03:24:00Z,28.4460,-96.3961,3.892,11111222 
TCOON,ioos:station:TCOON:057:1,2019-05-02T04:24:00Z,28.4460,-96.3961,3.894,11111222 
TCOON,ioos:station:TCOON:057:1,2019-05-02T05:24:00Z,28.4460,-96.3961,3.931,11111222 
TCOON,ioos:station:TCOON:057:1,2019-05-02T06:24:00Z,28.4460,-96.3961,3.95,11111222 
TCOON,ioos:station:TCOON:057:1,2019-05-02T07:24:00Z,28.4460,-96.3961,3.989,11111222 
TCOON,ioos:station:TCOON:057:1,2019-05-02T08:24:00Z,28.4460,-96.3961,3.979,11111222 
TCOON,ioos:station:TCOON:057:1,2019-05-02T09:24:00Z,28.4460,-96.3961,3.991,11111222 
TCOON,ioos:station:TCOON:057:1,2019-05-02T10:24:00Z,28.4460,-96.3961,3.997,11111222 
TCOON,ioos:station:TCOON:057:1,2019-05-02T11:24:00Z,28.4460,-96.3961,4.0,11111222 
TCOON,ioos:station:TCOON:057:1,2019-05-02T12:24:00Z,28.4460,-96.3961,4.0,11111222 
TCOON,ioos:station:TCOON:057:1,2019-05-02T13:24:00Z,28.4460,-96.3961,3.991,11111222 
TCOON,ioos:station:TCOON:057:1,2019-05-02T14:30:00Z,28.4460,-96.3961,3.985,11111222 
TCOON,ioos:station:TCOON:057:1,2019-05-02T15:24:00Z,28.4460,-96.3961,3.95,11111222 
TCOON,ioos:station:TCOON:057:1,2019-05-02T16:24:00Z,28.4460,-96.3961,3.94,11111222 
TCOON,ioos:station:TCOON:057:1,2019-05-02T17:30:00Z,28.4460,-96.3961,3.907,11111222 
TCOON,ioos:station:TCOON:057:1,2019-05-02T18:24:00Z,28.4460,-96.3961,3.896,11111222 
TCOON,ioos:station:TCOON:057:1,2019-05-02T19:24:00Z,28.4460,-96.3961,3.867,11111222 
TCOON,ioos:station:TCOON:057:1,2019-05-02T20:30:00Z,28.4460,-96.3961,3.886,11111222 
TCOON,ioos:station:TCOON:057:1,2019-05-02T21:24:00Z,28.4460,-96.3961,3.915,11111222 
TCOON,ioos:station:TCOON:057:1,2019-05-02T22:24:00Z,28.4460,-96.3961,3.872,11111222 
TCOON,ioos:station:TCOON:057:1,2019-05-02T23:24:00Z,28.4460,-96.3961,3.893,11111222 
TCOON,ioos:station:TCOON:057:1,2019-05-03T00:24:00Z,28.4460,-96.3961,3.853,11111222 
TCOON,ioos:station:TCOON:057:1,2019-05-03T01:24:00Z,28.4460,-96.3961,3.856,11111222 
TCOON,ioos:station:TCOON:057:1,2019-05-03T02:24:00Z,28.4460,-96.3961,3.86,11111222 
TCOON,ioos:station:TCOON:057:1,2019-05-03T03:24:00Z,28.4460,-96.3961,3.837,11111222 
TCOON,ioos:station:TCOON:057:1,2019-05-03T04:24:00Z,28.4460,-96.3961,3.837,11111222 
TCOON,ioos:station:TCOON:057:1,2019-05-03T05:24:00Z,28.4460,-96.3961,3.836,11111222 
TCOON,ioos:station:TCOON:057:1,2019-05-03T06:24:00Z,28.4460,-96.3961,3.845,11111222 
TCOON,ioos:station:TCOON:057:1,2019-05-03T07:24:00Z,28.4460,-96.3961,3.834,11111222 
TCOON,ioos:station:TCOON:057:1,2019-05-03T08:24:00Z,28.4460,-96.3961,3.891,11111222 
TCOON,ioos:station:TCOON:057:1,2019-05-03T09:24:00Z,28.4460,-96.3961,3.915,11111222 
TCOON,ioos:station:TCOON:057:1,2019-05-03T10:24:00Z,28.4460,-96.3961,3.928,11111222 
TCOON,ioos:station:TCOON:057:1,2019-05-03T11:24:00Z,28.4460,-96.3961,3.953,11111222 
TCOON,ioos:station:TCOON:057:1,2019-05-03T12:24:00Z,28.4460,-96.3961,3.95,11111222 
TCOON,ioos:station:TCOON:057:1,2019-05-03T13:30:00Z,28.4460,-96.3961,3.99,11111222 
TCOON,ioos:station:TCOON:057:1,2019-05-03T14:24:00Z,28.4460,-96.3961,3.975,11111222 
TCOON,ioos:station:TCOON:057:1,2019-05-03T15:24:00Z,28.4460,-96.3961,3.906,11111222 
TCOON,ioos:station:TCOON:057:1,2019-05-03T16:24:00Z,28.4460,-96.3961,4.02,11111222 
TCOON,ioos:station:TCOON:057:1,2019-05-03T17:30:00Z,28.4460,-96.3961,3.949,11111222 
TCOON,ioos:station:TCOON:057:1,2019-05-03T18:30:00Z,28.4460,-96.3961,3.883,11111222 
TCOON,ioos:station:TCOON:057:1,2019-05-03T19:24:00Z,28.4460,-96.3961,4.096,11111222 
TCOON,ioos:station:TCOON:057:1,2019-05-03T20:24:00Z,28.4460,-96.3961,4.037,11111222 
TCOON,ioos:station:TCOON:057:1,2019-05-03T21:30:00Z,28.4460,-96.3961,3.944,11111222 
TCOON,ioos:station:TCOON:057:1,2019-05-03T22:30:00Z,28.4460,-96.3961,3.947,11111222 
TCOON,ioos:station:TCOON:057:1,2019-05-03T23:24:00Z,28.4460,-96.3961,3.927,11111222 
TCOON,ioos:station:TCOON:057:1,2019-05-04T00:24:00Z,28.4460,-96.3961,3.893,11111222 
TCOON,ioos:station:TCOON:057:1,2019-05-04T01:24:00Z,28.4460,-96.3961,3.883,11111222 
TCOON,ioos:station:TCOON:057:1,2019-05-04T02:24:00Z,28.4460,-96.3961,3.847,11111222 
TCOON,ioos:station:TCOON:057:1,2019-05-04T03:30:00Z,28.4460,-96.3961,3.809,11111222 
TCOON,ioos:station:TCOON:057:1,2019-05-04T04:24:00Z,28.4460,-96.3961,3.801,11111222 
TCOON,ioos:station:TCOON:057:1,2019-05-04T05:24:00Z,28.4460,-96.3961,3.783,11111222 
TCOON,ioos:station:TCOON:057:1,2019-05-04T06:24:00Z,28.4460,-96.3961,3.875,11111222 
TCOON,ioos:station:TCOON:057:1,2019-05-04T07:24:00Z,28.4460,-96.3961,3.874,11111222 
TCOON,ioos:station:TCOON:057:1,2019-05-04T08:24:00Z,28.4460,-96.3961,3.801,11111222 
TCOON,ioos:station:TCOON:057:1,2019-05-04T09:24:00Z,28.4460,-96.3961,3.883,11111222 
TCOON,ioos:station:TCOON:057:1,2019-05-04T10:24:00Z,28.4460,-96.3961,3.857,11111222 
TCOON,ioos:station:TCOON:057:1,2019-05-04T11:24:00Z,28.4460,-96.3961,3.88,11111222 
TCOON,ioos:station:TCOON:057:1,2019-05-04T12:24:00Z,28.4460,-96.3961,3.884,11111222 
TCOON,ioos:station:TCOON:057:1,2019-05-04T13:24:00Z,28.4460,-96.3961,3.905,11111222 
TCOON,ioos:station:TCOON:057:1,2019-05-04T14:24:00Z,28.4460,-96.3961,3.894,11111222 
TCOON,ioos:station:TCOON:057:1,2019-05-04T15:24:00Z,28.4460,-96.3961,3.887,11111222 
TCOON,ioos:station:TCOON:057:1,2019-05-04T16:24:00Z,28.4460,-96.3961,3.909,11111222 
TCOON,ioos:station:TCOON:057:1,2019-05-04T17:24:00Z,28.4460,-96.3961,3.907,11111222 
TCOON,ioos:station:TCOON:057:1,2019-05-04T18:24:00Z,28.4460,-96.3961,3.875,11111222 
TCOON,ioos:station:TCOON:057:1,2019-05-04T19:24:00Z,28.4460,-96.3961,3.872,11111222 
TCOON,ioos:station:TCOON:057:1,2019-05-04T20:24:00Z,28.4460,-96.3961,3.864,11111222 
TCOON,ioos:station:TCOON:057:1,2019-05-04T21:24:00Z,28.4460,-96.3961,3.869,11111222 
TCOON,ioos:station:TCOON:057:1,2019-05-04T22:24:00Z,28.4460,-96.3961,3.844,11111222 
TCOON,ioos:station:TCOON:057:1,2019-05-04T23:24:00Z,28.4460,-96.3961,3.814,11111222 
TCOON,ioos:station:TCOON:057:1,2019-05-05T00:24:00Z,28.4460,-96.3961,3.795,11111222 
TCOON,ioos:station:TCOON:057:1,2019-05-05T01:24:00Z,28.4460,-96.3961,3.762,11111222 
TCOON,ioos:station:TCOON:057:1,2019-05-05T02:24:00Z,28.4460,-96.3961,3.742,11111222 
TCOON,ioos:station:TCOON:057:1,2019-05-05T03:24:00Z,28.4460,-96.3961,3.709,11111222 
TCOON,ioos:station:TCOON:057:1,2019-05-05T04:24:00Z,28.4460,-96.3961,3.691,11111222 
TCOON,ioos:station:TCOON:057:1,2019-05-05T05:24:00Z,28.4460,-96.3961,3.695,11111222 
TCOON,ioos:station:TCOON:057:1,2019-05-05T06:24:00Z,28.4460,-96.3961,3.685,11111222 
TCOON,ioos:station:TCOON:057:1,2019-05-05T07:24:00Z,28.4460,-96.3961,3.714,11111222 
TCOON,ioos:station:TCOON:057:1,2019-05-05T08:24:00Z,28.4460,-96.3961,3.735,11111222 
TCOON,ioos:station:TCOON:057:1,2019-05-05T09:30:00Z,28.4460,-96.3961,3.763,11111222 
TCOON,ioos:station:TCOON:057:1,2019-05-05T10:30:00Z,28.4460,-96.3961,3.756,11111222 
TCOON,ioos:station:TCOON:057:1,2019-05-05T11:24:00Z,28.4460,-96.3961,3.786,11111222 
TCOON,ioos:station:TCOON:057:1,2019-05-05T12:30:00Z,28.4460,-96.3961,3.824,11111222 
TCOON,ioos:station:TCOON:057:1,2019-05-05T13:30:00Z,28.4460,-96.3961,3.847,11111222 
TCOON,ioos:station:TCOON:057:1,2019-05-05T14:30:00Z,28.4460,-96.3961,3.862,11111222 
TCOON,ioos:station:TCOON:057:1,2019-05-05T15:30:00Z,28.4460,-96.3961,3.86,11111222 
TCOON,ioos:station:TCOON:057:1,2019-05-05T16:30:00Z,28.4460,-96.3961,3.855,11111222 
TCOON,ioos:station:TCOON:057:1,2019-05-05T17:30:00Z,28.4460,-96.3961,3.844,11111222 
TCOON,ioos:station:TCOON:057:1,2019-05-05T18:30:00Z,28.4460,-96.3961,3.839,11111222 
TCOON,ioos:station:TCOON:057:1,2019-05-05T19:24:00Z,28.4460,-96.3961,3.835,11111222 
TCOON,ioos:station:TCOON:057:1,2019-05-05T20:24:00Z,28.4460,-96.3961,3.833,11111222 
TCOON,ioos:station:TCOON:057:1,2019-05-05T21:24:00Z,28.4460,-96.3961,3.814,11111222 
TCOON,ioos:station:TCOON:057:1,2019-05-05T22:24:00Z,28.4460,-96.3961,3.78,11111222 
TCOON,ioos:station:TCOON:057:1,2019-05-05T23:24:00Z,28.4460,-96.3961,3.773,11111222 
TCOON,ioos:station:TCOON:057:1,2019-05-06T00:24:00Z,28.4460,-96.3961,3.746,11111222 
TCOON,ioos:station:TCOON:057:1,2019-05-06T01:24:00Z,28.4460,-96.3961,3.722,11111222 
TCOON,ioos:station:TCOON:057:1,2019-05-06T02:24:00Z,28.4460,-96.3961,3.681,11111222 
TCOON,ioos:station:TCOON:057:1,2019-05-06T03:24:00Z,28.4460,-96.3961,3.654,11111222 
TCOON,ioos:station:TCOON:057:1,2019-05-06T04:24:00Z,28.4460,-96.3961,3.636,11111222 
TCOON,ioos:station:TCOON:057:1,2019-05-06T05:24:00Z,28.4460,-96.3961,3.65,11111222 
TCOON,ioos:station:TCOON:057:1,2019-05-06T06:24:00Z,28.4460,-96.3961,3.654,11111222 
TCOON,ioos:station:TCOON:057:1,2019-05-06T07:24:00Z,28.4460,-96.3961,3.68,11111222 
TCOON,ioos:station:TCOON:057:1,2019-05-06T08:24:00Z,28.4460,-96.3961,3.708,11111222 
TCOON,ioos:station:TCOON:057:1,2019-05-06T09:24:00Z,28.4460,-96.3961,3.764,11111222 
TCOON,ioos:station:TCOON:057:1,2019-05-06T10:24:00Z,28.4460,-96.3961,3.789,11111222 
TCOON,ioos:station:TCOON:057:1,2019-05-06T11:24:00Z,28.4460,-96.3961,3.831,11111222 
TCOON,ioos:station:TCOON:057:1,2019-05-06T12:24:00Z,28.4460,-96.3961,3.862,11111222 
TCOON,ioos:station:TCOON:057:1,2019-05-06T13:24:00Z,28.4460,-96.3961,3.892,11111222 
TCOON,ioos:station:TCOON:057:1,2019-05-06T14:24:00Z,28.4460,-96.3961,3.918,11111222 
TCOON,ioos:station:TCOON:057:1,2019-05-06T15:24:00Z,28.4460,-96.3961,3.946,11111222 
TCOON,ioos:station:TCOON:057:1,2019-05-06T16:24:00Z,28.4460,-96.3961,3.95,11111222 
TCOON,ioos:station:TCOON:057:1,2019-05-06T17:24:00Z,28.4460,-96.3961,3.94,11111222 
TCOON,ioos:station:TCOON:057:1,2019-05-06T18:24:00Z,28.4460,-96.3961,3.925,11111222 
TCOON,ioos:station:TCOON:057:1,2019-05-06T19:24:00Z,28.4460,-96.3961,3.931,11111222 
TCOON,ioos:station:TCOON:057:1,2019-05-06T20:24:00Z,28.4460,-96.3961,3.889,11111222 
TCOON,ioos:station:TCOON:057:1,2019-05-06T21:24:00Z,28.4460,-96.3961,3.865,11111222 
TCOON,ioos:station:TCOON:057:1,2019-05-06T22:24:00Z,28.4460,-96.3961,3.841,11111222 
TCOON,ioos:station:TCOON:057:1,2019-05-06T23:24:00Z,28.4460,-96.3961,3.88,11111222 
TCOON,ioos:station:TCOON:057:1,2019-05-07T00:24:00Z,28.4460,-96.3961,3.828,11111222 
TCOON,ioos:station:TCOON:057:1,2019-05-07T01:24:00Z,28.4460,-96.3961,3.784,11111222 
TCOON,ioos:station:TCOON:057:1,2019-05-07T02:24:00Z,28.4460,-96.3961,3.762,11111222 
TCOON,ioos:station:TCOON:057:1,2019-05-07T03:24:00Z,28.4460,-96.3961,3.708,11111222 
TCOON,ioos:station:TCOON:057:1,2019-05-07T04:24:00Z,28.4460,-96.3961,3.697,11111222 
TCOON,ioos:station:TCOON:057:1,2019-05-07T05:24:00Z,28.4460,-96.3961,3.698,11111222 
TCOON,ioos:station:TCOON:057:1,2019-05-07T06:24:00Z,28.4460,-96.3961,3.685,11111222 
TCOON,ioos:station:TCOON:057:1,2019-05-07T07:24:00Z,28.4460,-96.3961,3.713,11111222 
TCOON,ioos:station:TCOON:057:1,2019-05-07T08:24:00Z,28.4460,-96.3961,3.725,11111222 
TCOON,ioos:station:TCOON:057:1,2019-05-07T09:24:00Z,28.4460,-96.3961,3.758,11111222 
TCOON,ioos:station:TCOON:057:1,2019-05-07T10:24:00Z,28.4460,-96.3961,3.809,11111222 
TCOON,ioos:station:TCOON:057:1,2019-05-07T11:24:00Z,28.4460,-96.3961,3.855,11111222 
TCOON,ioos:station:TCOON:057:1,2019-05-07T12:24:00Z,28.4460,-96.3961,3.906,11111222 
TCOON,ioos:station:TCOON:057:1,2019-05-07T13:30:00Z,28.4460,-96.3961,3.944,11111222 
TCOON,ioos:station:TCOON:057:1,2019-05-07T14:30:00Z,28.4460,-96.3961,3.979,11111222 
TCOON,ioos:station:TCOON:057:1,2019-05-07T15:24:00Z,28.4460,-96.3961,3.998,11111222 
TCOON,ioos:station:TCOON:057:1,2019-05-07T16:24:00Z,28.4460,-96.3961,4.015,11111222 
TCOON,ioos:station:TCOON:057:1,2019-05-07T17:24:00Z,28.4460,-96.3961,4.029,11111222 
TCOON,ioos:station:TCOON:057:1,2019-05-07T18:30:00Z,28.4460,-96.3961,4.015,11111222 
TCOON,ioos:station:TCOON:057:1,2019-05-07T19:24:00Z,28.4460,-96.3961,4.034,11111222 
TCOON,ioos:station:TCOON:057:1,2019-05-07T20:24:00Z,28.4460,-96.3961,4.047,11111222 
TCOON,ioos:station:TCOON:057:1,2019-05-07T21:24:00Z,28.4460,-96.3961,4.038,11111222 
TCOON,ioos:station:TCOON:057:1,2019-05-07T22:24:00Z,28.4460,-96.3961,3.999,11111222 
TCOON,ioos:station:TCOON:057:1,2019-05-07T23:24:00Z,28.4460,-96.3961,4.012,11111222 
TCOON,ioos:station:TCOON:057:1,2019-05-08T00:24:00Z,28.4460,-96.3961,3.961,11111222 
TCOON,ioos:station:TCOON:057:1,2019-05-08T01:24:00Z,28.4460,-96.3961,3.947,11111222 
TCOON,ioos:station:TCOON:057:1,2019-05-08T02:24:00Z,28.4460,-96.3961,3.923,11111222 
TCOON,ioos:station:TCOON:057:1,2019-05-08T03:24:00Z,28.4460,-96.3961,3.901,11111222 
TCOON,ioos:station:TCOON:057:1,2019-05-08T04:24:00Z,28.4460,-96.3961,3.885,11111222 
TCOON,ioos:station:TCOON:057:1,2019-05-08T05:24:00Z,28.4460,-96.3961,3.838,11111222 
TCOON,ioos:station:TCOON:057:1,2019-05-08T06:24:00Z,28.4460,-96.3961,3.833,11111222 
TCOON,ioos:station:TCOON:057:1,2019-05-08T07:24:00Z,28.4460,-96.3961,3.815,11111222 
TCOON,ioos:station:TCOON:057:1,2019-05-08T08:24:00Z,28.4460,-96.3961,3.796,11111222 
TCOON,ioos:station:TCOON:057:1,2019-05-08T09:24:00Z,28.4460,-96.3961,3.827,11111222 
TCOON,ioos:station:TCOON:057:1,2019-05-08T10:24:00Z,28.4460,-96.3961,3.874,11111222 
TCOON,ioos:station:TCOON:057:1,2019-05-08T11:24:00Z,28.4460,-96.3961,3.918,11111222 
TCOON,ioos:station:TCOON:057:1,2019-05-08T12:24:00Z,28.4460,-96.3961,3.955,11111222 
TCOON,ioos:station:TCOON:057:1,2019-05-08T13:24:00Z,28.4460,-96.3961,3.976,11111222 
TCOON,ioos:station:TCOON:057:1,2019-05-08T14:24:00Z,28.4460,-96.3961,4.013,11111222 
TCOON,ioos:station:TCOON:057:1,2019-05-08T15:24:00Z,28.4460,-96.3961,4.048,11111222 
TCOON,ioos:station:TCOON:057:1,2019-05-08T16:18:00Z,28.4460,-96.3961,4.098,11111222 
TCOON,ioos:station:TCOON:057:1,2019-05-08T17:24:00Z,28.4460,-96.3961,4.126,11111222 
TCOON,ioos:station:TCOON:057:1,2019-05-08T18:24:00Z,28.4460,-96.3961,4.151,11111222 
TCOON,ioos:station:TCOON:057:1,2019-05-08T19:24:00Z,28.4460,-96.3961,4.171,11111222 
TCOON,ioos:station:TCOON:057:1,2019-05-08T20:24:00Z,28.4460,-96.3961,4.164,11111222 
TCOON,ioos:station:TCOON:057:1,2019-05-08T21:24:00Z,28.4460,-96.3961,4.154,11111222 
TCOON,ioos:station:TCOON:057:1,2019-05-08T22:24:00Z,28.4460,-96.3961,4.14,11111222 
TCOON,ioos:station:TCOON:057:1,2019-05-08T23:24:00Z,28.4460,-96.3961,4.138,11111222 
TCOON,ioos:station:TCOON:057:1,2019-05-09T00:24:00Z,28.4460,-96.3961,4.111,11111222 
TCOON,ioos:station:TCOON:057:1,2019-05-09T01:24:00Z,28.4460,-96.3961,4.046,11111222 
TCOON,ioos:station:TCOON:057:1,2019-05-09T02:24:00Z,28.4460,-96.3961,4.002,11111222 
TCOON,ioos:station:TCOON:057:1,2019-05-09T03:24:00Z,28.4460,-96.3961,3.968,11111222 
TCOON,ioos:station:TCOON:057:1,2019-05-09T04:24:00Z,28.4460,-96.3961,3.932,11111222 
TCOON,ioos:station:TCOON:057:1,2019-05-09T05:24:00Z,28.4460,-96.3961,3.931,11111222 
TCOON,ioos:station:TCOON:057:1,2019-05-09T06:24:00Z,28.4460,-96.3961,3.91,11111222 
TCOON,ioos:station:TCOON:057:1,2019-05-09T07:24:00Z,28.4460,-96.3961,3.889,11111222 
TCOON,ioos:station:TCOON:057:1,2019-05-09T08:24:00Z,28.4460,-96.3961,3.859,11111222 
TCOON,ioos:station:TCOON:057:1,2019-05-09T09:24:00Z,28.4460,-96.3961,3.869,11111222 
TCOON,ioos:station:TCOON:057:1,2019-05-09T10:24:00Z,28.4460,-96.3961,3.878,11111222 
TCOON,ioos:station:TCOON:057:1,2019-05-09T11:24:00Z,28.4460,-96.3961,3.93,11111222 
TCOON,ioos:station:TCOON:057:1,2019-05-09T12:24:00Z,28.4460,-96.3961,3.969,11111222 
TCOON,ioos:station:TCOON:057:1,2019-05-09T13:24:00Z,28.4460,-96.3961,3.981,11111222 
TCOON,ioos:station:TCOON:057:1,2019-05-09T14:24:00Z,28.4460,-96.3961,4.025,11111222 
TCOON,ioos:station:TCOON:057:1,2019-05-09T15:24:00Z,28.4460,-96.3961,4.056,11111222 
TCOON,ioos:station:TCOON:057:1,2019-05-09T16:24:00Z,28.4460,-96.3961,4.091,11111222 
TCOON,ioos:station:TCOON:057:1,2019-05-09T17:24:00Z,28.4460,-96.3961,4.093,11111222 
TCOON,ioos:station:TCOON:057:1,2019-05-09T18:24:00Z,28.4460,-96.3961,4.104,11111222 
TCOON,ioos:station:TCOON:057:1,2019-05-09T19:24:00Z,28.4460,-96.3961,4.099,11111222 
TCOON,ioos:station:TCOON:057:1,2019-05-09T20:24:00Z,28.4460,-96.3961,4.105,11111222 
TCOON,ioos:station:TCOON:057:1,2019-05-09T21:24:00Z,28.4460,-96.3961,4.083,11111222 
TCOON,ioos:station:TCOON:057:1,2019-05-09T22:24:00Z,28.4460,-96.3961,4.075,11111222 
TCOON,ioos:station:TCOON:057:1,2019-05-09T23:24:00Z,28.4460,-96.3961,4.072,11111222 
TCOON,ioos:station:TCOON:057:1,2019-05-10T00:24:00Z,28.4460,-96.3961,4.026,11111222 
TCOON,ioos:station:TCOON:057:1,2019-05-10T01:24:00Z,28.4460,-96.3961,3.996,11111222 
TCOON,ioos:station:TCOON:057:1,2019-05-10T02:24:00Z,28.4460,-96.3961,3.96,11111222 
TCOON,ioos:station:TCOON:057:1,2019-05-10T03:24:00Z,28.4460,-96.3961,3.933,11111222 
TCOON,ioos:station:TCOON:057:1,2019-05-10T04:24:00Z,28.4460,-96.3961,3.909,11111222 
TCOON,ioos:station:TCOON:057:1,2019-05-10T05:54:00Z,28.4460,-96.3961,4.014,11111222 
TCOON,ioos:station:TCOON:057:1,2019-05-10T06:24:00Z,28.4460,-96.3961,3.914,11111222 
TCOON,ioos:station:TCOON:057:1,2019-05-10T07:24:00Z,28.4460,-96.3961,3.92,11111222 
TCOON,ioos:station:TCOON:057:1,2019-05-10T08:24:00Z,28.4460,-96.3961,3.9,11111222 
TCOON,ioos:station:TCOON:057:1,2019-05-10T09:24:00Z,28.4460,-96.3961,3.919,11111222 
TCOON,ioos:station:TCOON:057:1,2019-05-10T10:24:00Z,28.4460,-96.3961,3.987,11111222 
TCOON,ioos:station:TCOON:057:1,2019-05-10T11:24:00Z,28.4460,-96.3961,3.996,11111222 
TCOON,ioos:station:TCOON:057:1,2019-05-10T12:24:00Z,28.4460,-96.3961,3.979,11111222 
TCOON,ioos:station:TCOON:057:1,2019-05-10T13:24:00Z,28.4460,-96.3961,4.012,11111222 
TCOON,ioos:station:TCOON:057:1,2019-05-10T14:24:00Z,28.4460,-96.3961,4.113,11111222 
TCOON,ioos:station:TCOON:057:1,2019-05-10T15:24:00Z,28.4460,-96.3961,4.093,11111222 
TCOON,ioos:station:TCOON:057:1,2019-05-10T16:24:00Z,28.4460,-96.3961,4.157,11111222 
TCOON,ioos:station:TCOON:057:1,2019-05-10T17:24:00Z,28.4460,-96.3961,4.211,11111222 
TCOON,ioos:station:TCOON:057:1,2019-05-10T18:24:00Z,28.4460,-96.3961,4.229,11111222 
TCOON,ioos:station:TCOON:057:1,2019-05-10T19:24:00Z,28.4460,-96.3961,4.236,11111222 
TCOON,ioos:station:TCOON:057:1,2019-05-10T20:24:00Z,28.4460,-96.3961,4.223,11111222 
TCOON,ioos:station:TCOON:057:1,2019-05-10T21:24:00Z,28.4460,-96.3961,4.246,11111222 
TCOON,ioos:station:TCOON:057:1,2019-05-10T22:24:00Z,28.4460,-96.3961,4.23,11111222 
TCOON,ioos:station:TCOON:057:1,2019-05-10T23:24:00Z,28.4460,-96.3961,4.17,11111222 
TCOON,ioos:station:TCOON:057:1,2019-05-11T00:24:00Z,28.4460,-96.3961,4.15,11111222 
TCOON,ioos:station:TCOON:057:1,2019-05-11T01:24:00Z,28.4460,-96.3961,4.153,11111222 
TCOON,ioos:station:TCOON:057:1,2019-05-11T02:24:00Z,28.4460,-96.3961,4.124,11111222 
TCOON,ioos:station:TCOON:057:1,2019-05-11T03:24:00Z,28.4460,-96.3961,4.1,11111222 
TCOON,ioos:station:TCOON:057:1,2019-05-11T04:24:00Z,28.4460,-96.3961,4.061,11111222 
TCOON,ioos:station:TCOON:057:1,2019-05-11T05:24:00Z,28.4460,-96.3961,4.046,11111222 
TCOON,ioos:station:TCOON:057:1,2019-05-11T06:24:00Z,28.4460,-96.3961,3.993,11111222 
TCOON,ioos:station:TCOON:057:1,2019-05-11T07:24:00Z,28.4460,-96.3961,3.97,11111222 
TCOON,ioos:station:TCOON:057:1,2019-05-11T08:24:00Z,28.4460,-96.3961,3.952,11111222 
TCOON,ioos:station:TCOON:057:1,2019-05-11T09:24:00Z,28.4460,-96.3961,3.927,11111222 
TCOON,ioos:station:TCOON:057:1,2019-05-11T10:24:00Z,28.4460,-96.3961,3.916,11111222 
TCOON,ioos:station:TCOON:057:1,2019-05-11T11:24:00Z,28.4460,-96.3961,3.911,11111222 
TCOON,ioos:station:TCOON:057:1,2019-05-11T12:24:00Z,28.4460,-96.3961,3.919,11111222 
TCOON,ioos:station:TCOON:057:1,2019-05-13T13:30:00Z,28.4460,-96.3961,3.813,11111222 
TCOON,ioos:station:TCOON:057:1,2019-05-13T14:24:00Z,28.4460,-96.3961,3.815,11111222 
TCOON,ioos:station:TCOON:057:1,2019-05-13T15:36:00Z,28.4460,-96.3961,3.849,11111222 
TCOON,ioos:station:TCOON:057:1,2019-05-13T16:24:00Z,28.4460,-96.3961,3.863,11111222 
TCOON,ioos:station:TCOON:057:1,2019-05-13T17:24:00Z,28.4460,-96.3961,3.863,11111222 
TCOON,ioos:station:TCOON:057:1,2019-05-13T18:24:00Z,28.4460,-96.3961,3.869,11111222 
TCOON,ioos:station:TCOON:057:1,2019-05-13T19:24:00Z,28.4460,-96.3961,3.893,11111222 
TCOON,ioos:station:TCOON:057:1,2019-05-13T20:24:00Z,28.4460,-96.3961,3.931,11111222 
TCOON,ioos:station:TCOON:057:1,2019-05-13T21:24:00Z,28.4460,-96.3961,3.943,11111222 
TCOON,ioos:station:TCOON:057:1,2019-05-13T22:24:00Z,28.4460,-96.3961,3.945,11111222 
TCOON,ioos:station:TCOON:057:1,2019-05-13T23:24:00Z,28.4460,-96.3961,3.939,11111222 
TCOON,ioos:station:TCOON:057:1,2019-05-14T00:24:00Z,28.4460,-96.3961,3.937,11111222 
TCOON,ioos:station:TCOON:057:1,2019-05-14T01:24:00Z,28.4460,-96.3961,3.94,11111222 
TCOON,ioos:station:TCOON:057:1,2019-05-14T02:24:00Z,28.4460,-96.3961,3.935,11111222 
TCOON,ioos:station:TCOON:057:1,2019-05-14T03:24:00Z,28.4460,-96.3961,3.939,11111222 
TCOON,ioos:station:TCOON:057:1,2019-05-14T04:24:00Z,28.4460,-96.3961,3.933,11111222 
TCOON,ioos:station:TCOON:057:1,2019-05-14T05:24:00Z,28.4460,-96.3961,3.938,11111222 
TCOON,ioos:station:TCOON:057:1,2019-05-14T06:24:00Z,28.4460,-96.3961,3.931,11111222 
TCOON,ioos:station:TCOON:057:1,2019-05-14T07:24:00Z,28.4460,-96.3961,3.924,11111222 
TCOON,ioos:station:TCOON:057:1,2019-05-14T08:24:00Z,28.4460,-96.3961,3.921,11111222 
TCOON,ioos:station:TCOON:057:1,2019-05-14T09:24:00Z,28.4460,-96.3961,3.911,11111222 
TCOON,ioos:station:TCOON:057:1,2019-05-14T10:24:00Z,28.4460,-96.3961,3.896,11111222 
TCOON,ioos:station:TCOON:057:1,2019-05-14T11:24:00Z,28.4460,-96.3961,3.9,11111222 
TCOON,ioos:station:TCOON:057:1,2019-05-14T12:24:00Z,28.4460,-96.3961,3.889,11111222 
TCOON,ioos:station:TCOON:057:1,2019-05-14T13:24:00Z,28.4460,-96.3961,3.875,11111222 
TCOON,ioos:station:TCOON:057:1,2019-05-14T14:24:00Z,28.4460,-96.3961,3.884,11111222 
TCOON,ioos:station:TCOON:057:1,2019-05-14T15:24:00Z,28.4460,-96.3961,3.883,11111222 
TCOON,ioos:station:TCOON:057:1,2019-05-14T16:24:00Z,28.4460,-96.3961,3.881,11111222 